When you browse on this site, cookies collect data to enhance your experience and personalize the content and advertising you see.
Visit our Privacy Policy to learn more. By continuing to use the site, you agree to this use of cookies and data.
  • In Lithuania
  • List of Countries
  • For 7 days
  • Water Temperature
  • Weather Map
  • Weather Widgets
  • user-avatar
    Login

    Hourly Weather Soyana

    Today, 21 September, Saturday

    Time Temperature Precipitation Wind Pressure Humidity
    00:00 +1°C° 0.1 mm 4 mps 747 mmHg 93%
    01:00 +1°C° 0.1 mm 4 mps 747 mmHg 92%
    02:00 +1°C° 0.1 mm 4 mps 747 mmHg 91%
    03:00 +1°C° 0.1 mm 4 mps 747 mmHg 90%
    04:00 +1°C° 0.1 mm 4 mps 747 mmHg 89%
    05:00 +1°C° 0.1 mm 4 mps 747 mmHg 88%
    06:00 +3°C° 0.1 mm 4 mps 747 mmHg 86%
    07:00 +3°C° 0.2 mm 4 mps 747 mmHg 85%
    08:00 +3°C° 0.2 mm 4 mps 747 mmHg 84%
    09:00 +4°C° 0.2 mm 4 mps 748 mmHg 82%
    10:00 +4°C° 0.3 mm 4 mps 748 mmHg 79%
    11:00 +5°C° 0.3 mm 4 mps 748 mmHg 75%
    12:00 +5°C° 0.3 mm 3 mps 748 mmHg 72%
    13:00 +5°C° 0.4 mm 3 mps 748 mmHg 71%
    14:00 +5°C° 0.4 mm 3 mps 748 mmHg 71%
    15:00 +5°C° 0.4 mm 3 mps 748 mmHg 71%
    16:00 +5°C° 0.2 mm 2 mps 748 mmHg 76%
    17:00 +4°C° 0.2 mm 2 mps 748 mmHg 80%
    18:00 +3°C° 0.2 mm 2 mps 748 mmHg 85%
    19:00 +2°C° 0 mm 2 mps 748 mmHg 86%
    20:00 +2°C° 0 mm 2 mps 748 mmHg 88%
    21:00 +1°C° 0 mm 2 mps 749 mmHg 90%
    22:00 +1°C° 0 mm 2 mps 749 mmHg 91%
    23:00 +1°C° 0 mm 2 mps 749 mmHg 91%

    Tomorrow, 22 September, Sunday

    Time Temperature Precipitation Wind Pressure Humidity
    00:00 -1°C° 0 mm 2 mps 749 mmHg 92%
    01:00 -1°C° 0 mm 2 mps 749 mmHg 93%
    02:00 -1°C° 0 mm 2 mps 749 mmHg 93%
    03:00 -1°C° 0 mm 2 mps 749 mmHg 93%
    04:00 +1°C° 0 mm 1 mps 749 mmHg 93%
    05:00 +1°C° 0 mm 1 mps 750 mmHg 93%
    06:00 +1°C° 0 mm 1 mps 750 mmHg 93%
    07:00 +2°C° 0 mm 1 mps 750 mmHg 87%
    08:00 +3°C° 0 mm 2 mps 750 mmHg 81%
    09:00 +4°C° 0 mm 2 mps 750 mmHg 76%
    10:00 +4°C° 0.1 mm 2 mps 750 mmHg 80%
    11:00 +4°C° 0.1 mm 2 mps 750 mmHg 84%
    12:00 +3°C° 0.1 mm 3 mps 750 mmHg 88%
    13:00 +3°C° 0.6 mm 3 mps 751 mmHg 91%
    14:00 +1°C° 0.6 mm 4 mps 751 mmHg 93%
    15:00 +1°C° 0.6 mm 4 mps 751 mmHg 95%
    16:00 +1°C° 0.7 mm 5 mps 751 mmHg 95%
    17:00 +1°C° 0.7 mm 5 mps 751 mmHg 95%
    18:00 +1°C° 0.7 mm 6 mps 751 mmHg 95%
    19:00 +1°C° 0.3 mm 6 mps 751 mmHg 95%
    20:00 +1°C° 0.3 mm 6 mps 751 mmHg 96%
    21:00 +1°C° 0.3 mm 6 mps 751 mmHg 96%
    22:00 +1°C° 0.5 mm 5 mps 751 mmHg 96%
    23:00 +1°C° 0.5 mm 5 mps 750 mmHg 96%

    Day after tomorrow, 23 September, Monday

    Time Temperature Precipitation Wind Pressure Humidity
    00:00 +1°C° 0.5 mm 5 mps 750 mmHg 96%
    01:00 +1°C° 0.5 mm 5 mps 750 mmHg 96%
    02:00 +1°C° 0.5 mm 5 mps 750 mmHg 95%
    03:00 +1°C° 0.5 mm 5 mps 750 mmHg 95%
    04:00 +1°C° 0.4 mm 5 mps 750 mmHg 94%
    05:00 +1°C° 0.4 mm 5 mps 750 mmHg 93%
    06:00 +1°C° 0.4 mm 5 mps 750 mmHg 93%
    07:00 +1°C° 0.2 mm 5 mps 750 mmHg 92%
    08:00 +1°C° 0.2 mm 5 mps 750 mmHg 92%
    09:00 +1°C° 0.2 mm 5 mps 750 mmHg 91%
    10:00 +1°C° 0.3 mm 5 mps 750 mmHg 91%
    11:00 +2°C° 0.3 mm 5 mps 750 mmHg 90%
    12:00 +2°C° 0.3 mm 5 mps 751 mmHg 90%
    13:00 +3°C° 0.4 mm 4 mps 751 mmHg 92%
    14:00 +1°C° 0.4 mm 4 mps 751 mmHg 94%
    15:00 +1°C° 0.4 mm 4 mps 751 mmHg 96%
    16:00 +1°C° 0.8 mm 4 mps 751 mmHg 96%
    17:00 +1°C° 0.8 mm 4 mps 751 mmHg 96%
    18:00 +1°C° 0.8 mm 5 mps 751 mmHg 96%
    19:00 +1°C° 0.5 mm 5 mps 751 mmHg 96%
    20:00 +1°C° 0.5 mm 5 mps 750 mmHg 96%
    21:00 +1°C° 0.5 mm 5 mps 750 mmHg 96%
    22:00 +1°C° 0.4 mm 5 mps 750 mmHg 95%
    23:00 +1°C° 0.4 mm 5 mps 750 mmHg 95%

    24 September, Tuesday

    Time Temperature Precipitation Wind Pressure Humidity
    00:00 +1°C° 0.4 mm 5 mps 750 mmHg 94%
    01:00 +1°C° 0.6 mm 5 mps 750 mmHg 94%
    02:00 +1°C° 0.6 mm 4 mps 750 mmHg 95%
    03:00 +2°C° 0.6 mm 3 mps 750 mmHg 95%
    04:00 +1°C° 0.4 mm 4 mps 750 mmHg 95%
    05:00 +1°C° 0.4 mm 4 mps 750 mmHg 94%
    06:00 +1°C° 0.4 mm 4 mps 750 mmHg 93%
    07:00 +3°C° 0.5 mm 4 mps 750 mmHg 93%
    08:00 +3°C° 0.5 mm 4 mps 750 mmHg 93%
    09:00 +3°C° 0.5 mm 4 mps 750 mmHg 93%
    10:00 +3°C° 0.4 mm 4 mps 751 mmHg 92%
    11:00 +2°C° 0.4 mm 5 mps 751 mmHg 90%
    12:00 +2°C° 0.4 mm 5 mps 751 mmHg 89%
    13:00 +2°C° 0.3 mm 5 mps 751 mmHg 88%
    14:00 +2°C° 0.3 mm 5 mps 752 mmHg 88%
    15:00 +2°C° 0.3 mm 6 mps 752 mmHg 87%
    16:00 +2°C° 0.1 mm 5 mps 752 mmHg 87%
    17:00 +2°C° 0.1 mm 5 mps 752 mmHg 88%
    18:00 +1°C° 0.1 mm 5 mps 752 mmHg 89%
    19:00 +1°C° 0.1 mm 5 mps 752 mmHg 90%
    20:00 +1°C° 0.1 mm 5 mps 752 mmHg 91%
    21:00 +1°C° 0.1 mm 5 mps 752 mmHg 93%
    22:00 +1°C° 0.1 mm 5 mps 752 mmHg 92%
    23:00 +1°C° 0.1 mm 5 mps 753 mmHg 92%

    25 September, Wednesday

    Time Temperature Precipitation Wind Pressure Humidity
    00:00 +1°C° 0.1 mm 4 mps 753 mmHg 91%
    01:00 +1°C° 0.1 mm 4 mps 753 mmHg 91%
    02:00 +1°C° 0.1 mm 4 mps 753 mmHg 92%
    03:00 +1°C° 0.1 mm 4 mps 753 mmHg 92%
    04:00 +1°C° 0.1 mm 4 mps 753 mmHg 91%
    05:00 0°C° 0.1 mm 4 mps 753 mmHg 90%
    06:00 0°C° 0.1 mm 4 mps 753 mmHg 89%
    07:00 +1°C° 0.1 mm 4 mps 754 mmHg 87%
    08:00 +1°C° 0.1 mm 5 mps 754 mmHg 85%
    09:00 +2°C° 0.1 mm 5 mps 754 mmHg 83%
    10:00 +2°C° 0.2 mm 5 mps 755 mmHg 81%
    11:00 +2°C° 0.2 mm 5 mps 755 mmHg 79%
    12:00 +3°C° 0.2 mm 5 mps 755 mmHg 78%
    13:00 +2°C° 0.1 mm 5 mps 755 mmHg 78%
    14:00 +2°C° 0.1 mm 5 mps 756 mmHg 78%
    15:00 +2°C° 0.1 mm 5 mps 756 mmHg 78%
    16:00 +2°C° 0.1 mm 5 mps 756 mmHg 80%
    17:00 +1°C° 0.1 mm 4 mps 756 mmHg 81%
    18:00 +1°C° 0.1 mm 4 mps 756 mmHg 83%
    19:00 +1°C° 0 mm 4 mps 756 mmHg 84%
    20:00 0°C° 0 mm 4 mps 757 mmHg 86%
    21:00 +1°C° 0 mm 3 mps 757 mmHg 87%
    22:00 +1°C° 0 mm 3 mps 757 mmHg 87%
    23:00 +1°C° 0 mm 3 mps 757 mmHg 87%

    26 September, Thursday

    Time Temperature Precipitation Wind Pressure Humidity
    00:00 +1°C° 0 mm 3 mps 757 mmHg 87%
    01:00 +1°C° 0.1 mm 3 mps 757 mmHg 88%
    02:00 +1°C° 0.1 mm 3 mps 757 mmHg 88%
    03:00 +1°C° 0.1 mm 3 mps 757 mmHg 89%
    04:00 0°C° 0.1 mm 4 mps 757 mmHg 89%
    05:00 0°C° 0.1 mm 4 mps 757 mmHg 89%
    06:00 0°C° 0.1 mm 4 mps 757 mmHg 89%
    07:00 0°C° 0 mm 4 mps 758 mmHg 85%
    08:00 +1°C° 0 mm 4 mps 758 mmHg 81%
    09:00 +1°C° 0 mm 4 mps 758 mmHg 78%
    10:00 +3°C° 0 mm 4 mps 758 mmHg 76%
    11:00 +3°C° 0 mm 4 mps 757 mmHg 74%
    12:00 +4°C° 0 mm 4 mps 757 mmHg 73%
    13:00 +4°C° 0 mm 4 mps 757 mmHg 73%
    14:00 +5°C° 0 mm 4 mps 757 mmHg 74%
    15:00 +5°C° 0 mm 4 mps 757 mmHg 75%
    16:00 +5°C° 0 mm 5 mps 756 mmHg 79%
    17:00 +3°C° 0 mm 5 mps 756 mmHg 82%
    18:00 +3°C° 0 mm 5 mps 756 mmHg 86%
    19:00 +3°C° 0.1 mm 5 mps 756 mmHg 88%
    20:00 +3°C° 0.1 mm 5 mps 755 mmHg 90%
    21:00 +3°C° 0.1 mm 5 mps 755 mmHg 92%
    22:00 +3°C° 0 mm 5 mps 755 mmHg 92%
    23:00 +4°C° 0 mm 4 mps 755 mmHg 91%
    Show more